When you browse on this site, cookies collect data to enhance your experience and personalize the content and advertising you see.
Visit our Privacy Policy to learn more. By continuing to use the site, you agree to this use of cookies and data.
  • In Hungary
  • List of Countries
  • For 7 days
  • Water Temperature
  • Satellite Maps
  • Weather Map
  • News
  • Weather Widgets
  • user-avatar
    Login

    Hourly Weather Koziary

    Today, 19 May, Sunday

    Time Temperature Precipitation Wind Pressure Humidity
    00:00 +13°C° 0.1 mm 1 mps 730 mmHg 91%
    01:00 +13°C° 0 mm 1 mps 729 mmHg 92%
    02:00 +12°C° 0 mm 1 mps 729 mmHg 92%
    03:00 +12°C° 0 mm 1 mps 729 mmHg 91%
    04:00 +11°C° 0 mm 1 mps 729 mmHg 91%
    05:00 +13°C° 0 mm 1 mps 729 mmHg 87%
    06:00 +15°C° 0 mm 1 mps 729 mmHg 83%
    07:00 +18°C° 0 mm 1 mps 729 mmHg 78%
    08:00 +19°C° 0 mm 1 mps 729 mmHg 73%
    09:00 +21°C° 0 mm 1 mps 729 mmHg 68%
    10:00 +23°C° 0 mm 2 mps 729 mmHg 62%
    11:00 +23°C° 0.1 mm 2 mps 729 mmHg 61%
    12:00 +24°C° 0.1 mm 2 mps 729 mmHg 60%
    13:00 +25°C° 0.1 mm 3 mps 729 mmHg 59%
    14:00 +24°C° 0.8 mm 3 mps 728 mmHg 61%
    15:00 +24°C° 0.8 mm 3 mps 728 mmHg 62%
    16:00 +24°C° 0.8 mm 3 mps 728 mmHg 64%
    17:00 +22°C° 0.3 mm 3 mps 728 mmHg 69%
    18:00 +20°C° 0.3 mm 2 mps 728 mmHg 74%
    19:00 +19°C° 0.3 mm 2 mps 728 mmHg 79%
    20:00 +18°C° 0 mm 2 mps 728 mmHg 82%
    21:00 +16°C° 0 mm 2 mps 728 mmHg 85%
    22:00 +15°C° 0 mm 2 mps 728 mmHg 88%
    23:00 +15°C° 0 mm 1 mps 727 mmHg 88%

    Tomorrow, 20 May, Monday

    Time Temperature Precipitation Wind Pressure Humidity
    00:00 +14°C° 0 mm 1 mps 727 mmHg 88%
    01:00 +13°C° 0 mm 0 mps 727 mmHg 88%
    02:00 +14°C° 0 mm 1 mps 727 mmHg 89%
    03:00 +13°C° 0 mm 1 mps 727 mmHg 91%
    04:00 +13°C° 0 mm 1 mps 727 mmHg 92%
    05:00 +14°C° 0.1 mm 1 mps 727 mmHg 90%
    06:00 +15°C° 0.1 mm 2 mps 727 mmHg 88%
    07:00 +16°C° 0.1 mm 2 mps 727 mmHg 87%
    08:00 +18°C° 0 mm 2 mps 727 mmHg 80%
    09:00 +20°C° 0 mm 2 mps 727 mmHg 73%
    10:00 +21°C° 0 mm 2 mps 727 mmHg 66%
    11:00 +23°C° 0.2 mm 2 mps 728 mmHg 62%
    12:00 +24°C° 0.2 mm 3 mps 728 mmHg 58%
    13:00 +25°C° 0.2 mm 3 mps 728 mmHg 54%
    14:00 +25°C° 0 mm 3 mps 728 mmHg 53%
    15:00 +25°C° 0 mm 2 mps 728 mmHg 52%
    16:00 +25°C° 0 mm 2 mps 728 mmHg 52%
    17:00 +23°C° 0 mm 2 mps 728 mmHg 57%
    18:00 +20°C° 0 mm 2 mps 728 mmHg 62%
    19:00 +19°C° 0 mm 1 mps 727 mmHg 67%
    20:00 +17°C° 0 mm 2 mps 728 mmHg 69%
    21:00 +16°C° 0 mm 2 mps 728 mmHg 71%
    22:00 +15°C° 0 mm 2 mps 728 mmHg 73%
    23:00 +14°C° 0 mm 2 mps 728 mmHg 75%

    Day after tomorrow, 21 May, Tuesday

    Time Temperature Precipitation Wind Pressure Humidity
    00:00 +14°C° 0 mm 1 mps 728 mmHg 76%
    01:00 +13°C° 0 mm 1 mps 728 mmHg 78%
    02:00 +13°C° 0 mm 1 mps 728 mmHg 79%
    03:00 +13°C° 0 mm 1 mps 728 mmHg 79%
    04:00 +13°C° 0 mm 1 mps 728 mmHg 79%
    05:00 +14°C° 0 mm 1 mps 728 mmHg 76%
    06:00 +16°C° 0 mm 1 mps 728 mmHg 72%
    07:00 +18°C° 0 mm 1 mps 728 mmHg 68%
    08:00 +19°C° 0.2 mm 1 mps 728 mmHg 67%
    09:00 +18°C° 0.2 mm 2 mps 728 mmHg 65%
    10:00 +19°C° 0.2 mm 3 mps 728 mmHg 64%
    11:00 +19°C° 0.1 mm 3 mps 728 mmHg 63%
    12:00 +19°C° 0.1 mm 3 mps 728 mmHg 62%
    13:00 +19°C° 0.1 mm 2 mps 728 mmHg 62%
    14:00 +19°C° 0.1 mm 2 mps 728 mmHg 63%
    15:00 +19°C° 0.1 mm 2 mps 728 mmHg 64%
    16:00 +20°C° 0.1 mm 1 mps 728 mmHg 65%
    17:00 +19°C° 0.3 mm 1 mps 728 mmHg 70%
    18:00 +18°C° 0.3 mm 1 mps 728 mmHg 74%
    19:00 +16°C° 0.3 mm 1 mps 728 mmHg 79%
    20:00 +15°C° 0 mm 1 mps 728 mmHg 81%
    21:00 +14°C° 0 mm 1 mps 729 mmHg 83%
    22:00 +14°C° 0 mm 2 mps 729 mmHg 85%
    23:00 +13°C° 0 mm 2 mps 729 mmHg 87%

    22 May, Wednesday

    Time Temperature Precipitation Wind Pressure Humidity
    00:00 +13°C° 0 mm 2 mps 729 mmHg 89%
    01:00 +12°C° 0 mm 2 mps 729 mmHg 91%
    02:00 +12°C° 0 mm 2 mps 729 mmHg 91%
    03:00 +12°C° 0 mm 2 mps 729 mmHg 91%
    04:00 +12°C° 0 mm 2 mps 729 mmHg 92%
    05:00 +13°C° 0 mm 2 mps 729 mmHg 88%
    06:00 +14°C° 0 mm 2 mps 729 mmHg 85%
    07:00 +14°C° 0 mm 3 mps 730 mmHg 82%
    08:00 +16°C° 0.1 mm 3 mps 730 mmHg 77%
    09:00 +18°C° 0.1 mm 3 mps 730 mmHg 73%
    10:00 +19°C° 0.1 mm 3 mps 730 mmHg 68%
    11:00 +19°C° 0.7 mm 4 mps 730 mmHg 70%
    12:00 +19°C° 0.7 mm 4 mps 730 mmHg 72%
    13:00 +19°C° 0.7 mm 5 mps 730 mmHg 74%
    14:00 +19°C° 0.4 mm 5 mps 730 mmHg 75%
    15:00 +17°C° 0.4 mm 5 mps 730 mmHg 76%
    16:00 +17°C° 0.4 mm 5 mps 730 mmHg 77%
    17:00 +17°C° 0.2 mm 4 mps 730 mmHg 81%
    18:00 +15°C° 0.2 mm 4 mps 731 mmHg 85%
    19:00 +14°C° 0.2 mm 3 mps 731 mmHg 90%
    20:00 +14°C° 0.1 mm 3 mps 731 mmHg 91%
    21:00 +13°C° 0.1 mm 3 mps 732 mmHg 92%
    22:00 +13°C° 0.1 mm 4 mps 732 mmHg 94%
    23:00 +13°C° 0 mm 4 mps 732 mmHg 94%

    23 May, Thursday

    Time Temperature Precipitation Wind Pressure Humidity
    00:00 +12°C° 0 mm 4 mps 732 mmHg 94%
    01:00 +12°C° 0 mm 4 mps 732 mmHg 94%
    02:00 +12°C° 0.2 mm 4 mps 733 mmHg 94%
    03:00 +12°C° 0.2 mm 4 mps 733 mmHg 94%
    04:00 +12°C° 0.2 mm 3 mps 733 mmHg 94%
    05:00 +12°C° 0.1 mm 4 mps 733 mmHg 93%
    06:00 +12°C° 0.1 mm 4 mps 733 mmHg 91%
    07:00 +13°C° 0.1 mm 5 mps 734 mmHg 89%
    08:00 +14°C° 0 mm 5 mps 734 mmHg 81%
    09:00 +15°C° 0 mm 5 mps 734 mmHg 72%
    10:00 +16°C° 0 mm 6 mps 734 mmHg 63%
    11:00 +16°C° 0 mm 5 mps 734 mmHg 58%
    12:00 +17°C° 0 mm 5 mps 734 mmHg 54%
    13:00 +19°C° 0 mm 5 mps 734 mmHg 49%
    14:00 +19°C° 0 mm 5 mps 734 mmHg 50%
    15:00 +19°C° 0 mm 5 mps 734 mmHg 51%
    16:00 +19°C° 0 mm 5 mps 734 mmHg 52%
    17:00 +17°C° 0 mm 4 mps 734 mmHg 58%
    18:00 +14°C° 0 mm 3 mps 734 mmHg 64%
    19:00 +14°C° 0 mm 2 mps 734 mmHg 71%
    20:00 +13°C° 0 mm 1 mps 734 mmHg 75%
    21:00 +11°C° 0 mm 1 mps 734 mmHg 78%
    22:00 +9°C° 0 mm 0 mps 734 mmHg 82%
    23:00 +9°C° 0 mm 0 mps 734 mmHg 83%

    24 May, Friday

    Time Temperature Precipitation Wind Pressure Humidity
    00:00 +8°C° 0 mm 0 mps 734 mmHg 84%
    01:00 +8°C° 0 mm 0 mps 734 mmHg 85%
    02:00 +8°C° 0 mm 0 mps 734 mmHg 85%
    03:00 +8°C° 0 mm 0 mps 734 mmHg 86%
    04:00 +7°C° 0 mm 0 mps 734 mmHg 87%
    05:00 +9°C° 0 mm 0 mps 733 mmHg 81%
    06:00 +11°C° 0 mm 0 mps 733 mmHg 75%
    07:00 +13°C° 0 mm 0 mps 733 mmHg 69%
    08:00 +15°C° 0 mm 0 mps 733 mmHg 64%
    09:00 +16°C° 0 mm 0 mps 733 mmHg 60%
    10:00 +20°C° 0 mm 1 mps 733 mmHg 55%
    11:00 +20°C° 0 mm 1 mps 733 mmHg 53%
    12:00 +21°C° 0 mm 1 mps 732 mmHg 51%
    13:00 +20°C° 0 mm 2 mps 732 mmHg 49%
    14:00 +20°C° 0 mm 2 mps 731 mmHg 51%
    15:00 +20°C° 0 mm 2 mps 731 mmHg 52%
    16:00 +20°C° 0 mm 2 mps 731 mmHg 54%
    17:00 +18°C° 0 mm 2 mps 731 mmHg 60%
    18:00 +17°C° 0 mm 2 mps 730 mmHg 66%
    19:00 +15°C° 0 mm 2 mps 730 mmHg 72%
    20:00 +14°C° 0 mm 2 mps 730 mmHg 74%
    21:00 +13°C° 0 mm 2 mps 731 mmHg 76%
    22:00 +12°C° 0 mm 1 mps 731 mmHg 79%
    23:00 +11°C° 0 mm 1 mps 731 mmHg 80%
    Show more